UKAWC Weather Map Carousel5
Last update: Thu Dec 14 13:47:23 EST 2017
[US Rad], [IR Sat], [VIS], [WW], [NatRad], [Temps], [LSI], [Wind], [QPF], [5-day], [WCI], [DewP], [Sfc loop], [Sfc/Rad], [Today], [Tom.], [NextDay], [12Hr], [24Hr], [36Hr], [36Hr], [48Hr], [60Hr], [7-day Threats] [Day 8-14 Threats] [850mb], [500mb], [Thick], ALL , wxcarousel , [Slow version] [Fast version]
Webcasts: County NWS Hazardous Weather, Hourly Ag Weather Conditions, Kentucky Ag Weather Synopsis, w/Maps, Kentucky Weekly Climate Report, w/Maps, Kentucky Weather & Crop Report,

100 PM EST THU DEC 14 2017
WESTERN AND SOUTH CENTRAL KENTUCKY
  
CITY           SKY/WX    TMP DP  RH WIND       PRES   REMARKS
PADUCAH        CLOUDY    36  21  54 NE8       30.06F WCI  30          
HENDERSON      CLOUDY    33  20  58 N6        30.07S WCI  28          
OWENSBORO      PTSUNNY  N/A N/A N/A N7        30.06S                  
HOPKINSVILLE   NOT AVBL                                               
BOWLING GREEN  CLOUDY    37  23  56 VRB5      30.03S WCI  33          
GLASGOW        CLOUDY    36  23  59 N3        30.01S                  

100 PM EST THU DEC 14 2017
...CENTRAL KENTUCKY...
  
CITY           SKY/WX    TMP DP  RH WIND       PRES   REMARKS
MT STERLING*   CLOUDY    32  23  69 NE5       30.00S WCI  27          
FLEMING/MASON* PTSUNNY   32  19  59 NW8       30.01S WCI  24          
DANVILLE*      CLOUDY    32  21  64 NW7       30.00S WCI  26          
LEXINGTON      CLOUDY    34  19  54 CALM      30.00S                  
6HR MIN TEMP:  30; 6HR MAX TEMP:  34;                                

FRANKFORT      MOSUNNY   36  12  37 MISG      30.00S                  
6HR MIN TEMP:  30; 6HR MAX TEMP:  36;                                

LOUISVILLE     CLOUDY    34  19  54 N7        30.04S WCI  28          
6HR MIN TEMP:  32; 6HR MAX TEMP:  35;                                

LEBANON*       CLOUDY    34  19  55 CALM      30.01S                  
GLASGOW*       CLOUDY    36  23  59 N3        30.01S                  
BOWLING GREEN  CLOUDY    37  23  56 VRB5      30.03S WCI  33          
6HR MIN TEMP:  35; 6HR MAX TEMP:  37;                                



100 PM EST THU DEC 14 2017
...SOUTHERN OHIO/WEST VIRGINIA...
  
CITY           SKY/WX    TMP DP  RH WIND       PRES   REMARKS
COVINGTON      CLOUDY    27  17  66 N6        30.03R WCI  20          
COLUMBUS       CLOUDY    24  16  71 NW9       30.02R WCI  14          
DAYTON         CLOUDY    22  16  78 VRB5      30.04S WCI  16          
WILMINGTON     CLOUDY    24  16  71 N7        30.01S WCI  16          
HUNTINGTON     PTSUNNY   33  18  53 NW7       29.98R WCI  27          
CHARLESTON     CLOUDY    34  20  56 NW7       29.95R WCI  28          
PINEVILLE*       N/A     35  23  60 MISG      29.95R                  
BECKLEY        CLOUDY    29  19  66 NW8       29.85R WCI  21          
BLUEFIELD      CLOUDY    31  20  63 VRB6      29.84R WCI  25          
LOGAN CO APT*  CLOUDY    32  21  64 CALM      29.92R                  

100 PM EST THU DEC 14 2017
...EASTERN KENTUCKY...
  
CITY           SKY/WX    TMP DP  RH WIND       PRES   REMARKS
JACKSON        CLOUDY    35  21  56 VRB3      29.94S                  
6HR MIN TEMP:  32; 6HR MAX TEMP:  36;                                

LONDON         CLOUDY    35  21  56 N6        29.95S WCI  30          
6HR MIN TEMP:  34; 6HR MAX TEMP:  37;                                

SOMERSET*      CLOUDY    34  21  60 N6        30.00R WCI  29          
MONTICELLO*    CLOUDY    36  24  62 N16       29.99S WCI  26          
6HR MIN TEMP:  36; 6HR MAX TEMP:  37;                                

WILLIAMSBURG*  CLOUDY    37  27  65 N3        29.95R                  
MIDDLESBORO*   CLOUDY    40  27  59 NE7       29.94R                  
6HR MIN TEMP:  38; 6HR MAX TEMP:  40;                                

HARLAN APT*    CLOUDY    37  25  60 CALM      29.92S                  
PIKE CO APT*   CLOUDY    34  22  60 NW5       29.93S WCI  30          
BIG SANDY APT* CLOUDY    35  21  57 NW6       29.95R WCI  30          
6HR MIN TEMP:  34; 6HR MAX TEMP:  37;                                

MOREHEAD APT*  CLOUDY    32  19  59 NW7       30.00S WCI  26          


Kentucky Weather Synopsis:

Thu Dec 14 13:47:23 EST 2017

Updated Thursday, December 14, 2017
...Cold End To The Work Week; Warming This Week End...

High pressure will move in behind a departing cold front today. This will allow winds to slowdown after sunrise. Winds will pick up again tomorrow as another trough passes through the region. No precipitation is expected until the weekend.

Kentucky State Forecast

Western KY:
Central KY:
Eastern KY:

Specific and detailed farm-by-farm weather forecast information is available in your Point Ag Forecast. New County Ag Weather Page, Current Conditions:Kentucky, U.S.



Current Watches/Warnings/Statements: Click here.

Current weather around the greater Bluegrass region:

100 PM EST THU DEC 14 2017 ...CENTRAL KENTUCKY... CITY SKY/WX TMP DP RH WIND PRES REMARKS MT STERLING* CLOUDY 32 23 69 NE5 30.00S WCI 27 FLEMING/MASON* PTSUNNY 32 19 59 NW8 30.01S WCI 24 DANVILLE* CLOUDY 32 21 64 NW7 30.00S WCI 26 LEXINGTON CLOUDY 34 19 54 CALM 30.00S 6HR MIN TEMP: 30; 6HR MAX TEMP: 34; FRANKFORT MOSUNNY 36 12 37 MISG 30.00S 6HR MIN TEMP: 30; 6HR MAX TEMP: 36; LOUISVILLE CLOUDY 34 19 54 N7 30.04S WCI 28 6HR MIN TEMP: 32; 6HR MAX TEMP: 35; LEBANON* CLOUDY 34 19 55 CALM 30.01S GLASGOW* CLOUDY 36 23 59 N3 30.01S BOWLING GREEN CLOUDY 37 23 56 VRB5 30.03S WCI 33 6HR MIN TEMP: 35; 6HR MAX TEMP: 37;


7-Day NWS Hazardous Weather Outlook for central Kentucky:

From the UK ag weather center. Updated: 4 AM Thu Dec 14 2017 this hazardous weather outlook is for portions of south central indiana and central kentucky. .day one...today and tonight. no hazardous weather is expected at this time. .days two through seven...friday through wednesday. no hazardous weather is expected at this time. .spotter information statement... spotter activation is not anticipated. This hazardous forecast is provided by The National Weather Service.


The Short-Term Forecast for Kentucky:

Western KY .TODAY...Cloudy. Highs in the upper 30s. North winds around 5 mph. Central KY .TODAY...Partly cloudy. Highs in the mid 30s. North winds 5 to 10 mph. Eastern KY .TODAY...Mostly cloudy early then becoming partly cloudy. Highs in the upper 30s. Light winds.

7-day Forecast for central Kentucky:

Thu Dec 14 04:04:04 EST 2017 Fayette- Including the city of Lexington 403 AM EST Thu Dec 14 2017 .TODAY...Partly cloudy. Highs in the mid 30s. North winds 5 to 10 mph. .TONIGHT...Partly cloudy. Lows in the lower 20s. Northeast winds up to 5 mph. .FRIDAY...Partly cloudy. Highs in the upper 30s. West winds 5 to 15 mph. .FRIDAY NIGHT...Partly cloudy. Lows in the upper 20s. Southwest winds 5 to 10 mph. .SATURDAY...Mostly sunny. Highs in the upper 40s. Southwest winds 5 to 10 mph. .SATURDAY NIGHT...Mostly clear. Lows in the lower 30s. .SUNDAY...Rain showers likely. Highs in the upper 40s. Chance of showers 60 percent. .SUNDAY NIGHT...Cloudy with a 30 percent chance of rain showers. Lows in the upper 30s. .MONDAY...Mostly cloudy with a 30 percent chance of showers. Highs in the lower 50s. .MONDAY NIGHT...Partly cloudy. Lows in the mid 30s. .TUESDAY...Partly cloudy with a 20 percent chance of rain showers. Highs in the lower 50s. .TUESDAY NIGHT...Partly cloudy. Lows around 30. .WEDNESDAY...Partly cloudy. Highs in the mid 40s.
Click here for the 60 hr. forecast maps, or loop .

Over The Next 48 Hours in Kentucky

(Click any thumbnail below to view full-sized image) or select State or Conus below
NWS West KY:
NWS Central KY:
NWS East KY:
NWS National:

NWS Weather Story

NWS West:
NWS Central:
NWS East:

Temperature

Next 12 Hrs
Next 24 Hrs
Next 36 Hrs
Next 48 Hrs

Weather Conditions

Next 12 Hrs
Next 24 Hrs
Next 36 Hrs
Next 48 Hrs

Apparent Temperature

Next 12 Hrs
Next 24 Hrs
Next 36 Hrs
Next 48 Hrs

Probability of Precipitation

Next 12 Hrs
Next 24 Hrs
Next 36 Hrs
Next 48 Hrs

Winds

Next 12 Hrs
Next 24 Hrs
Next 36 Hrs
Next 48 Hrs

Sky Condition

Next 12 Hrs
Next 24 Hrs
Next 36 Hrs
Next 48 Hrs

Forecast Maps

Now
Next 12 Hrs
Next 24 Hrs
Next 36 Hrs
Next 72 Hrs

Place Mouse Over Text to Pause....